FRS111N EDSB-EDDC

Flight info

Callsign FRS111N
Flight time N/A
Altitude 2000
Route EDSB/03
Aircraft TBM9

Departure

Time N/A
Airport Karlsruhe Baden-Baden Airport (EDSB)

Arrival

Time 2026-04-30 21:55
Airport Dresden Airport (EDDC)
Time Latitude Longitude Altitude Speed Heading
2026-04-30 21:46 50.98040 13.30531 3507 ft 125 kts 50°
2026-04-30 21:47 50.98657 13.31576 3517 ft 144 kts 50°
2026-04-30 21:47 50.99385 13.32855 3535 ft 169 kts 50°
2026-04-30 21:47 51.00223 13.34399 3536 ft 198 kts 50°
2026-04-30 21:47 51.01160 13.36152 3527 ft 217 kts 51°
2026-04-30 21:48 51.02154 13.38027 3528 ft 227 kts 51°
2026-04-30 21:48 51.03180 13.39976 3527 ft 232 kts 51°
2026-04-30 21:48 51.04218 13.41945 3524 ft 231 kts 51°
2026-04-30 21:48 51.05257 13.43926 3004 ft 240 kts 51°
2026-04-30 21:49 51.06362 13.46054 2522 ft 252 kts 51°
2026-04-30 21:49 51.07465 13.48161 2523 ft 245 kts 51°
2026-04-30 21:49 51.08549 13.50227 2518 ft 242 kts 51°
2026-04-30 21:49 51.09626 13.52269 2513 ft 240 kts 51°
2026-04-30 21:50 51.10689 13.54281 2510 ft 225 kts 51°
2026-04-30 21:50 51.11428 13.56153 2503 ft 191 kts 75°
2026-04-30 21:50 51.11404 13.58264 2501 ft 193 kts 98°
2026-04-30 21:50 51.11228 13.60390 2503 ft 199 kts 94°
2026-04-30 21:51 51.11163 13.62685 2499 ft 214 kts 88°
2026-04-30 21:51 51.11434 13.65061 2499 ft 223 kts 72°
2026-04-30 21:51 51.11992 13.67398 2505 ft 229 kts 69°
2026-04-30 21:51 51.12566 13.69780 2511 ft 232 kts 69°
2026-04-30 21:52 51.13350 13.72012 2490 ft 234 kts 49°
2026-04-30 21:52 51.14554 13.73783 2420 ft 238 kts 41°
2026-04-30 21:52 51.15804 13.75474 2405 ft 224 kts 41°
2026-04-30 21:52 51.16880 13.76888 2386 ft 178 kts 41°
2026-04-30 21:53 51.17445 13.78313 2388 ft 137 kts 85°
2026-04-30 21:53 51.17144 13.79534 2381 ft 109 kts 130°
2026-04-30 21:53 51.16492 13.79984 2336 ft 102 kts 145°
2026-04-30 21:53 51.15971 13.80530 2143 ft 86 kts 181°
2026-04-30 21:54 51.15584 13.79790 1708 ft 93 kts 234°
2026-04-30 21:54 51.15095 13.79097 1261 ft 94 kts 220°
2026-04-30 21:54 51.14612 13.78450 980 ft 93 kts 219°
2026-04-30 21:54 51.14153 13.77796 733 ft 84 kts 221°
2026-04-30 21:55 51.13778 13.77276 725 ft 61 kts 219°
2026-04-30 21:55 51.13556 13.76959 726 ft 34 kts 222°
2026-04-30 21:55 51.13388 13.76760 731 ft 25 kts 182°
2026-04-30 21:55 51.13300 13.76868 730 ft 0 kts 129°
2026-04-30 21:56 51.13241 13.76961 730 ft 20 kts 154°
2026-04-30 21:57 51.13134 13.76870 738 ft 23 kts 220°
2026-04-30 21:57 51.13018 13.76706 741 ft 21 kts 218°
2026-04-30 21:57 51.12906 13.76552 743 ft 23 kts 220°
2026-04-30 21:57 51.12789 13.76391 744 ft 21 kts 221°
2026-04-30 21:58 51.12682 13.76244 747 ft 18 kts 217°
2026-04-30 21:58 51.12586 13.76116 751 ft 11 kts 211°
2026-04-30 21:58 51.12527 13.76154 750 ft 18 kts 137°
2026-04-30 21:58 51.12443 13.76138 754 ft 14 kts 225°
2026-04-30 21:59 51.12356 13.76026 757 ft 15 kts 219°
2026-04-30 21:59 51.12332 13.75986 757 ft 0 kts 307°